Regional Weather Roundup
Issued by NWS

Home | Current Version | Previous Version | Graphics & Text | Print | Product List | Glossary Off
Versions: 1 2 3 4 5 6 7 8 9 10 11 12 13 14 15 16 17 18 19 20 21 22 23 24 25 26 27 28 29 30 31 32 33 34 35 36 37 38 39 40 41 42 43 44 45 46 47 48 49 50

000
ASUS43 KDMX 040107
RWRIA

WEATHER ROUNDUP FOR IOWA
NATIONAL WEATHER SERVICE DES MOINES IA
800 PM CDT FRI JUL 03 2015

NOTE: "FAIR" INDICATES FEW OR NO CLOUDS BELOW 12,000 FEET WITH NO
SIGNIFICANT WEATHER AND/OR OBSTRUCTIONS TO VISIBILITY.

* - THESE STATIONS ARE NOT NWS STATIONS...THUS NOT UNDER NWS
QUALITY CONTROL.  THEY ALSO DO NOT REPORT WEATHER SUCH
AS PRECIPITATION OR FOG.

IAZ001>003-012>014-020>022-031>034-043>046-040200-
   NORTHWEST IOWA

CITY           SKY/WX    TMP DP  RH WIND       PRES   REMARKS
CARROLL *      CLEAR     73  57  56 CALM      29.96S
CHEROKEE *     CLEAR     72  63  73 CALM      29.96S
DENISON *      CLEAR     73  55  53 CALM      29.94F
LE MARS *      CLEAR     73  63  68 CALM      29.96S
ORANGE CITY *  CLEAR     72  61  68 CALM      29.97R
SHELDON *      CLEAR     73  61  64 CALM      29.95S
SIOUX CITY     CLEAR     75  65  70 CALM      29.95S
SPENCER        PTCLDY    73  59  61 W5        29.96S
STORM LAKE *   CLEAR     72  59  64 CALM      29.97S
$$

IAZ055>058-069>071-079>083-090>094-040200-
   SOUTHWEST IOWA

CITY           SKY/WX    TMP DP  RH WIND       PRES   REMARKS
ATLANTIC *     CLEAR     73  59  60 CALM      29.96S
AUDUBON *      CLEAR     72  57  60 CALM      29.98S
CLARINDA *     CLEAR     75  63  64 CALM      29.97S
COUNCIL BLFS * CLEAR     73  55  53 NE3       29.97S
CRESTON *      CLEAR     73  57  56 NE5       29.96F HAZE
HARLAN  *      CLEAR     73  61  64 CALM      30.00S
LAMONI         CLEAR     75  59  57 N3        29.95S
RED OAK *      CLEAR     75  55  50 CALM      29.96S
SHENANDOAH *   CLEAR     73  61  64 N3        29.96S
$$

IAZ047>049-059>061-072>074-084-040200-
   CENTRAL IOWA

CITY           SKY/WX    TMP DP  RH WIND       PRES   REMARKS
AMES           CLEAR     73  61  65 CALM      29.94F
ANKENY *       CLEAR     73  63  68 CALM      29.94S
CHARITON *     CLEAR     72  59  64 N3        29.95F
DES MOINES     PTCLDY    75  58  55 S6        29.94S
GRINNELL*      CLEAR     72  59  64 CALM      29.95S
KNOXVILLE *    CLEAR     73  54  49 CALM      29.94S
MARSHALLTOWN   CLEAR     74  60  61 CALM      29.94S
PELLA *        CLEAR     73  61  64 CALM      29.95F
PERRY *          N/A     75  55  50 CALM      29.96S
$$

IAZ004>006-015-016-023>025-035-036-040200-
   NORTH CENTRAL IOWA

CITY           SKY/WX    TMP DP  RH WIND       PRES   REMARKS
ALGONA *       CLEAR     73  59  60 SW5       29.95S
CLARION *      CLEAR     73  54  49 NW6       29.95S
ESTHERVILLE    PTCLDY    73  60  63 W3        29.95S
FORT DODGE *   CLEAR     72  55  56 CALM      29.96S
MASON CITY     CLEAR     72  59  63 W5        29.96S
FOREST CITY *  CLEAR     72  54  53 CALM      29.95S
IOWA FALLS *     N/A     73  61  64 CALM      29.96S
$$

IAZ007>011-017>019-026>030-037>042-050>054-066-040200-
   NORTHEAST IOWA

CITY           SKY/WX    TMP DP  RH WIND       PRES   REMARKS
CEDAR RAPIDS   CLEAR     73  59  61 N3        29.93F
CHARLES CITY * CLEAR     72  64  78 CALM      29.95S
CLINTON *      CLEAR     70  61  73 N3        29.96S
DECORAH *        N/A    N/A N/A N/A MISG        N/A
DUBUQUE        CLEAR     70  57  63 NW3       29.95S
MONTICELLO *   CLEAR     70  59  68 CALM      29.94S
OELWEIN *        N/A    N/A N/A N/A MISG        N/A
WATERLOO       CLEAR     74  59  59 CALM      29.93F
$$

IAZ064-065-067-068-078-040200-
   EAST CENTRAL IOWA

CITY           SKY/WX    TMP DP  RH WIND       PRES   REMARKS
DAVENPORT      CLEAR     71  63  75 CALM      29.93S
IOWA CITY      CLEAR     74  54  49 W3        29.94F
MT. PLEASANT * CLEAR     75  59  57 CALM      29.93S
MUSCATINE *    CLEAR     75  61  60 N3        29.93S
QUAD CITIES    CLEAR     73  61  65 CALM      29.92S
$$

IAZ062-063-075>077-085>089-095>099-040200-
   SOUTHEAST IOWA

CITY           SKY/WX    TMP DP  RH WIND       PRES   REMARKS
BURLINGTON     CLEAR     73  62  68 N7        29.92S
FAIRFIELD *    CLEAR     70  61  73 N6        29.94S
FORT MADISON * CLEAR     72  64  78 CALM      29.94S
KEOKUK *       CLEAR     73  63  68 CALM      29.92S
OSKALOOSA *      N/A     70  61  73 CALM      29.95S
CENTERVILLE *  CLEAR     73  61  64 CALM      29.96S
OTTUMWA        CLEAR     72  61  68 N5        29.93S
WASHINGTON *   CLEAR     73  59  60 N6        29.95S
$$

ABBREVIATIONS USED IN REMARKS
   TC - TEMPERATURES IN CELSIUS
  WCI - WIND CHILL INDEX
   HX - HEAT INDEX
  VSB - VISIBILITY
$$




USA.gov is the U.S. government's official web portal to all federal, state and local government web resources and services.